| time (UTC) | temp F | wind direction | speed MPH | gust MPH | rain 1hr in | rain 24hr in | rain mn in | humidity % | barometer mb |
| 20260905222521 | 82 | 276 | 4.0 | 8.0 | 0.00 | 0.00 | 0.00 | 68 | 1011.4 |
| 20260905222023 | 83 | 253 | 4.0 | 8.0 | 0.00 | 0.00 | 0.00 | 68 | 1011.4 |
| 20260905221548 | 82 | 261 | 3.0 | 8.0 | 0.00 | 0.00 | 0.00 | 68 | 1011.5 |
| 20260905221035 | 82 | 246 | 2.0 | 8.0 | 0.00 | 0.00 | 0.00 | 68 | 1011.5 |
| 20260905220520 | 82 | 222 | 3.0 | 9.0 | 0.00 | 0.00 | 0.00 | 67 | 1011.5 |
| 20260905220025 | 83 | 224 | 4.0 | 9.0 | 0.00 | 0.00 | 0.00 | 65 | 1011.6 |
| 20260905215529 | 83 | 241 | 3.0 | 7.0 | 0.00 | 0.00 | 0.00 | 66 | 1011.6 |
| 20260905215035 | 83 | 281 | 3.0 | 9.0 | 0.00 | 0.00 | 0.00 | 63 | 1011.7 |
| 20260905214523 | 83 | 308 | 5.0 | 9.0 | 0.00 | 0.00 | 0.00 | 65 | 1011.7 |
| 20260905214030 | 83 | 284 | 5.0 | 9.0 | 0.00 | 0.00 | 0.00 | 60 | 1011.7 |
| 20260905213538 | 83 | 275 | 5.0 | 9.0 | 0.00 | 0.00 | 0.00 | 60 | 1011.8 |
| 20260905213020 | 83 | 329 | 3.0 | 9.0 | 0.00 | 0.00 | 0.00 | 60 | 1011.8 |
| 20260905212548 | 83 | 268 | 4.0 | 9.0 | 0.00 | 0.00 | 0.00 | 63 | 1011.9 |
| 20260905212054 | 82 | 277 | 4.0 | 9.0 | 0.00 | 0.00 | 0.00 | 62 | 1012.0 |
| 20260905211517 | 82 | 265 | 1.0 | 9.0 | 0.00 | 0.00 | 0.00 | 63 | 1012.0 |
| 20260905211048 | 82 | 265 | 4.0 | 10.0 | 0.00 | 0.00 | 0.00 | 62 | 1012.0 |
| 20260905210528 | 82 | 284 | 5.0 | 10.0 | 0.00 | 0.00 | 0.00 | 64 | 1012.0 |
| 20260905210032 | 81 | 269 | 4.0 | 8.0 | 0.00 | 0.00 | 0.00 | 63 | 1012.1 |
| 20260905205539 | 81 | 286 | 4.0 | 9.0 | 0.00 | 0.00 | 0.00 | 64 | 1012.2 |
| 20260905205022 | 81 | 297 | 5.0 | 9.0 | 0.00 | 0.00 | 0.00 | 64 | 1012.1 |
| 20260905204546 | 80 | 283 | 4.0 | 9.0 | 0.00 | 0.00 | 0.00 | 65 | 1012.2 |
| 20260905204030 | 79 | 260 | 4.0 | 9.0 | 0.00 | 0.00 | 0.00 | 69 | 1012.3 |
| 20260905203557 | 79 | 259 | 3.0 | 8.0 | 0.00 | 0.00 | 0.00 | 71 | 1012.3 |
| 20260905203023 | 79 | 279 | 2.0 | 10.0 | 0.00 | 0.00 | 0.00 | 72 | 1012.3 |
| 20260905202536 | 79 | 224 | 4.0 | 10.0 | 0.00 | 0.00 | 0.00 | 71 | 1012.4 |
| 20260905202021 | 80 | 273 | 5.0 | 10.0 | 0.00 | 0.00 | 0.00 | 71 | 1012.3 |
| 20260905201522 | 79 | 273 | 3.0 | 12.0 | 0.00 | 0.00 | 0.00 | 70 | 1012.5 |
| 20260905201025 | 79 | 225 | 5.0 | 12.0 | 0.00 | 0.00 | 0.00 | 71 | 1012.5 |
| 20260905200526 | 79 | 276 | 5.0 | 9.0 | 0.00 | 0.00 | 0.00 | 73 | 1012.5 |
| 20260905200029 | 79 | 252 | 5.0 | 10.0 | 0.00 | 0.00 | 0.00 | 72 | 1012.6 |
| 20260905195532 | 78 | 276 | 3.0 | 10.0 | 0.00 | 0.00 | 0.00 | 74 | 1012.6 |
| 20260905195042 | 78 | 262 | 4.0 | 8.0 | 0.00 | 0.00 | 0.00 | 73 | 1012.7 |
| 20260905194525 | 78 | 262 | 2.0 | 8.0 | 0.00 | 0.00 | 0.00 | 74 | 1012.7 |
| 20260905194028 | 78 | 279 | 4.0 | 9.0 | 0.00 | 0.00 | 0.00 | 73 | 1012.8 |
| 20260905193535 | 79 | 280 | 4.0 | 9.0 | 0.00 | 0.00 | 0.00 | 72 | 1012.9 |
| 20260905193024 | 79 | 249 | 4.0 | 8.0 | 0.00 | 0.00 | 0.00 | 72 | 1013.0 |
| 20260905192525 | 79 | 256 | 3.0 | 8.0 | 0.00 | 0.00 | 0.00 | 72 | 1013.0 |
| 20260905192030 | 79 | 268 | 4.0 | 9.0 | 0.00 | 0.00 | 0.00 | 72 | 1013.0 |
| 20260905191536 | 78 | 264 | 4.0 | 9.0 | 0.00 | 0.00 | 0.00 | 70 | 1013.1 |
| 20260905191020 | 79 | 294 | 3.0 | 7.0 | 0.00 | 0.00 | 0.00 | 67 | 1013.1 |
| 20260905190521 | 79 | 304 | 3.0 | 11.0 | 0.00 | 0.00 | 0.00 | 69 | 1013.1 |
| 20260905190024 | 80 | 295 | 3.0 | 11.0 | 0.00 | 0.00 | 0.00 | 67 | 1013.1 |
| 20260905185526 | 79 | 290 | 2.0 | 8.0 | 0.00 | 0.00 | 0.00 | 66 | 1013.1 |
| 20260905185026 | 79 | 296 | 5.0 | 8.0 | 0.00 | 0.00 | 0.00 | 69 | 1013.2 |
| 20260905184550 | 79 | 288 | 2.0 | 8.0 | 0.00 | 0.00 | 0.00 | 70 | 1013.3 |
| 20260905184037 | 79 | 253 | 3.0 | 9.0 | 0.00 | 0.00 | 0.00 | 70 | 1013.3 |
| 20260905183523 | 79 | 282 | 3.0 | 9.0 | 0.00 | 0.00 | 0.00 | 66 | 1013.3 |
| 20260905183033 | 79 | 251 | 4.0 | 7.0 | 0.00 | 0.00 | 0.00 | 66 | 1013.3 |
| 20260905182530 | 79 | 273 | 2.0 | 7.0 | 0.00 | 0.00 | 0.00 | 66 | 1013.4 |
| 20260905182037 | 79 | 232 | 2.0 | 7.0 | 0.00 | 0.00 | 0.00 | 68 | 1013.4 |
| 20260905181543 | 78 | 284 | 3.0 | 8.0 | 0.00 | 0.00 | 0.00 | 70 | 1013.4 |
| 20260905181025 | 78 | 248 | 4.0 | 8.0 | 0.00 | 0.00 | 0.00 | 71 | 1013.5 |
| 20260905180534 | 77 | 284 | 4.0 | 9.0 | 0.00 | 0.00 | 0.00 | 72 | 1013.5 |
| 20260905180040 | 77 | 284 | 3.0 | 9.0 | 0.00 | 0.00 | 0.00 | 72 | 1013.6 |
| 20260905175521 | 76 | 265 | 2.0 | 8.0 | 0.00 | 0.00 | 0.00 | 71 | 1013.5 |
| 20260905175027 | 76 | 259 | 2.0 | 8.0 | 0.00 | 0.00 | 0.00 | 72 | 1013.5 |
| 20260905174528 | 76 | 266 | 2.0 | 8.0 | 0.00 | 0.00 | 0.00 | 73 | 1013.4 |
| 20260905174030 | 76 | 265 | 2.0 | 5.0 | 0.00 | 0.00 | 0.00 | 72 | 1013.4 |
| 20260905173556 | 76 | 212 | 0.0 | 6.0 | 0.00 | 0.00 | 0.00 | 71 | 1013.3 |
| 20260905173018 | 76 | 252 | 1.0 | 6.0 | 0.00 | 0.00 | 0.00 | 70 | 1013.3 |
| 20260905172526 | 76 | 263 | 0.0 | 0.0 | 0.00 | 0.00 | 0.00 | 70 | 1013.3 |
| 20260905172034 | 76 | 248 | 0.0 | 0.0 | 0.00 | 0.00 | 0.00 | 67 | 1013.3 |
| 20260905171538 | 76 | 251 | 0.0 | 0.0 | 0.00 | 0.00 | 0.00 | 65 | 1013.2 |
| 20260905171023 | 77 | 242 | 0.0 | 0.0 | 0.00 | 0.00 | 0.00 | 65 | 1013.2 |
| 20260905170551 | 77 | 259 | 0.0 | 0.0 | 0.00 | 0.00 | 0.00 | 63 | 1013.2 |
| 20260905170054 | 77 | 242 | 0.0 | 0.0 | 0.00 | 0.00 | 0.00 | 64 | 1013.1 |
| 20260905165520 | 77 | 265 | 0.0 | 0.0 | 0.00 | 0.00 | 0.00 | 64 | 1013.1 |
| 20260905165024 | 77 | 234 | 0.0 | 0.0 | 0.00 | 0.00 | 0.00 | 61 | 1013.2 |
| 20260905164529 | 77 | 202 | 0.0 | 0.0 | 0.00 | 0.00 | 0.00 | 63 | 1013.2 |
| 20260905164017 | 77 | 236 | 0.0 | 0.0 | 0.00 | 0.00 | 0.00 | 60 | 1013.1 |
| 20260905163525 | 77 | 9 | 0.0 | 0.0 | 0.00 | 0.00 | 0.00 | 59 | 1013.1 |
| 20260905163025 | 77 | 26 | 0.0 | 0.0 | 0.00 | 0.00 | 0.00 | 60 | 1013.1 |
| 20260905162538 | 76 | 28 | 0.0 | 0.0 | 0.00 | 0.00 | 0.00 | 55 | 1013.2 |
| 20260905162025 | 75 | 28 | 0.0 | 0.0 | 0.00 | 0.00 | 0.00 | 56 | 1013.2 |
| 20260905161528 | 74 | 28 | 0.0 | 0.0 | 0.00 | 0.00 | 0.00 | 58 | 1013.2 |
| 20260905161030 | 73 | 28 | 0.0 | 0.0 | 0.00 | 0.00 | 0.00 | 59 | 1013.3 |
| 20260905160535 | 72 | 28 | 0.0 | 0.0 | 0.00 | 0.00 | 0.00 | 63 | 1013.1 |
| 20260905160023 | 72 | 28 | 0.0 | 0.0 | 0.00 | 0.00 | 0.00 | 63 | 1013.1 |
| 20260905155528 | 71 | 41 | 0.0 | 0.0 | 0.00 | 0.00 | 0.00 | 64 | 1013.1 |
| 20260905155030 | 71 | 64 | 0.0 | 0.0 | 0.00 | 0.00 | 0.00 | 65 | 1013.1 |
| 20260905154532 | 71 | 28 | 0.0 | 0.0 | 0.00 | 0.00 | 0.00 | 67 | 1013.0 |
| 20260905154037 | 70 | 55 | 0.0 | 0.0 | 0.00 | 0.00 | 0.00 | 71 | 1013.1 |
| 20260905153521 | 70 | 55 | 0.0 | 0.0 | 0.00 | 0.00 | 0.00 | 72 | 1013.1 |
| 20260905153031 | 69 | 55 | 0.0 | 0.0 | 0.00 | 0.00 | 0.00 | 74 | 1013.0 |
| 20260905152557 | 68 | 55 | 0.0 | 0.0 | 0.00 | 0.00 | 0.00 | 75 | 1013.0 |
| 20260905152023 | 67 | 56 | 0.0 | 0.0 | 0.00 | 0.00 | 0.00 | 76 | 1013.0 |
| 20260905151524 | 67 | 63 | 0.0 | 0.0 | 0.00 | 0.00 | 0.00 | 75 | 1013.1 |
| 20260905151027 | 67 | 63 | 0.0 | 0.0 | 0.00 | 0.00 | 0.00 | 75 | 1013.0 |
| 20260905150534 | 67 | 27 | 0.0 | 0.0 | 0.00 | 0.00 | 0.00 | 74 | 1012.9 |
| 20260905150041 | 67 | 60 | 0.0 | 0.0 | 0.00 | 0.00 | 0.00 | 76 | 1012.9 |
| 20260905145523 | 66 | 64 | 0.0 | 0.0 | 0.00 | 0.00 | 0.00 | 76 | 1012.9 |
| 20260905145027 | 66 | 54 | 0.0 | 0.0 | 0.00 | 0.00 | 0.00 | 77 | 1012.8 |
| 20260905144533 | 65 | 74 | 0.0 | 0.0 | 0.00 | 0.00 | 0.00 | 78 | 1012.8 |
| 20260905144020 | 65 | 72 | 0.0 | 0.0 | 0.00 | 0.00 | 0.00 | 80 | 1012.8 |
| 20260905143521 | 64 | 61 | 0.0 | 3.0 | 0.00 | 0.00 | 0.00 | 81 | 1012.7 |
| 20260905143024 | 63 | 62 | 0.0 | 3.0 | 0.00 | 0.00 | 0.00 | 82 | 1012.6 |
| 20260905142533 | 63 | 44 | 0.0 | 3.0 | 0.00 | 0.00 | 0.00 | 84 | 1012.6 |
| 20260905142017 | 62 | 43 | 1.0 | 3.0 | 0.00 | 0.00 | 0.00 | 85 | 1012.6 |
| 20260905141524 | 62 | 44 | 0.0 | 0.0 | 0.00 | 0.00 | 0.00 | 86 | 1012.6 |
| 20260905141028 | 61 | 43 | 0.0 | 3.0 | 0.00 | 0.00 | 0.00 | 87 | 1012.6 |
| 20260905140534 | 61 | 43 | 0.0 | 5.0 | 0.00 | 0.00 | 0.00 | 88 | 1012.4 |
| 20260905140017 | 60 | 44 | 1.0 | 6.0 | 0.00 | 0.00 | 0.00 | 88 | 1012.4 |
| 20260905135522 | 60 | 38 | 3.0 | 6.0 | 0.00 | 0.00 | 0.00 | 89 | 1012.3 |
| 20260905135025 | 60 | 36 | 3.0 | 6.0 | 0.00 | 0.00 | 0.00 | 89 | 1012.3 |
| 20260905134527 | 60 | 34 | 3.0 | 6.0 | 0.00 | 0.00 | 0.00 | 89 | 1012.2 |
| 20260905134033 | 60 | 60 | 3.0 | 7.0 | 0.00 | 0.00 | 0.00 | 89 | 1012.2 |
| 20260905133537 | 60 | 32 | 3.0 | 8.0 | 0.00 | 0.00 | 0.00 | 89 | 1012.1 |
| 20260905133020 | 60 | 36 | 4.0 | 8.0 | 0.00 | 0.00 | 0.00 | 90 | 1011.9 |
| 20260905132536 | 60 | 41 | 4.0 | 8.0 | 0.00 | 0.00 | 0.00 | 90 | 1011.8 |
| 20260905132019 | 60 | 36 | 5.0 | 9.0 | 0.00 | 0.00 | 0.00 | 90 | 1011.8 |
| 20260905131524 | 60 | 43 | 3.0 | 6.0 | 0.00 | 0.00 | 0.00 | 90 | 1011.9 |
| 20260905131052 | 60 | 64 | 4.0 | 7.0 | 0.00 | 0.00 | 0.00 | 90 | 1011.9 |
| 20260905130531 | 60 | 61 | 4.0 | 6.0 | 0.00 | 0.00 | 0.00 | 90 | 1011.9 |
| 20260905130037 | 60 | 46 | 3.0 | 5.0 | 0.00 | 0.00 | 0.00 | 90 | 1011.8 |
| 20260905125543 | 60 | 46 | 3.0 | 6.0 | 0.00 | 0.00 | 0.00 | 90 | 1011.9 |
| 20260905125023 | 60 | 51 | 3.0 | 6.0 | 0.00 | 0.00 | 0.00 | 90 | 1011.9 |
| 20260905124529 | 60 | 57 | 3.0 | 5.0 | 0.00 | 0.00 | 0.00 | 90 | 1012.0 |
| 20260905124038 | 60 | 64 | 0.0 | 4.0 | 0.00 | 0.00 | 0.00 | 90 | 1011.9 |
| 20260905123520 | 60 | 59 | 1.0 | 5.0 | 0.00 | 0.00 | 0.00 | 90 | 1012.0 |
| 20260905123048 | 60 | 59 | 3.0 | 5.0 | 0.00 | 0.00 | 0.00 | 90 | 1011.9 |
| 20260905122531 | 60 | 54 | 3.0 | 5.0 | 0.00 | 0.00 | 0.00 | 90 | 1012.0 |
| 20260905122017 | 60 | 57 | 3.0 | 5.0 | 0.00 | 0.00 | 0.00 | 90 | 1012.0 |
| 20260905121522 | 61 | 61 | 2.0 | 4.0 | 0.00 | 0.00 | 0.00 | 90 | 1012.0 |
| 20260905121048 | 61 | 62 | 2.0 | 4.0 | 0.00 | 0.00 | 0.00 | 90 | 1012.0 |
| 20260905120534 | 61 | 55 | 2.0 | 5.0 | 0.00 | 0.00 | 0.00 | 90 | 1011.9 |
| 20260905120059 | 61 | 55 | 2.0 | 5.0 | 0.00 | 0.00 | 0.00 | 90 | 1012.0 |
| 20260905115522 | 61 | 56 | 2.0 | 7.0 | 0.00 | 0.00 | 0.00 | 90 | 1011.9 |
| 20260905115049 | 61 | 56 | 4.0 | 7.0 | 0.00 | 0.00 | 0.00 | 90 | 1011.9 |
| 20260905114535 | 61 | 61 | 4.0 | 7.0 | 0.00 | 0.00 | 0.00 | 90 | 1011.8 |
| 20260905114019 | 61 | 59 | 4.0 | 6.0 | 0.00 | 0.00 | 0.00 | 90 | 1011.9 |
| 20260905113521 | 61 | 58 | 3.0 | 6.0 | 0.00 | 0.00 | 0.00 | 90 | 1011.9 |
| 20260905113024 | 62 | 37 | 3.0 | 6.0 | 0.00 | 0.00 | 0.00 | 90 | 1012.0 |
| 20260905112525 | 62 | 55 | 2.0 | 5.0 | 0.00 | 0.00 | 0.00 | 90 | 1012.0 |
| 20260905112029 | 62 | 60 | 3.0 | 5.0 | 0.00 | 0.00 | 0.00 | 90 | 1012.0 |
| 20260905111533 | 62 | 53 | 2.0 | 5.0 | 0.00 | 0.00 | 0.00 | 90 | 1012.0 |
| 20260905111021 | 62 | 57 | 1.0 | 4.0 | 0.00 | 0.00 | 0.00 | 90 | 1012.0 |
| 20260905110525 | 62 | 57 | 1.0 | 5.0 | 0.00 | 0.00 | 0.00 | 90 | 1012.1 |
| 20260905110028 | 62 | 59 | 3.0 | 5.0 | 0.00 | 0.00 | 0.00 | 90 | 1012.1 |
| 20260905105533 | 62 | 55 | 1.0 | 5.0 | 0.00 | 0.00 | 0.00 | 90 | 1012.1 |
| 20260905105059 | 62 | 55 | 2.0 | 6.0 | 0.00 | 0.00 | 0.00 | 90 | 1012.1 |
| 20260905104521 | 62 | 58 | 3.0 | 6.0 | 0.00 | 0.00 | 0.00 | 90 | 1012.2 |
| 20260905104027 | 62 | 56 | 3.0 | 7.0 | 0.00 | 0.00 | 0.00 | 90 | 1012.1 |
| 20260905103532 | 62 | 53 | 2.0 | 5.0 | 0.00 | 0.00 | 0.00 | 90 | 1012.1 |
| 20260905103057 | 62 | 49 | 2.0 | 5.0 | 0.00 | 0.00 | 0.00 | 90 | 1012.1 |
| 20260905102544 | 62 | 50 | 2.0 | 6.0 | 0.00 | 0.00 | 0.00 | 90 | 1012.1 |
| 20260905102024 | 62 | 50 | 2.0 | 6.0 | 0.00 | 0.00 | 0.00 | 90 | 1012.2 |
| 20260905101527 | 62 | 49 | 2.0 | 4.0 | 0.00 | 0.00 | 0.00 | 90 | 1012.2 |
| 20260905101052 | 62 | 49 | 1.0 | 4.0 | 0.00 | 0.00 | 0.00 | 90 | 1012.2 |
| 20260905100536 | 62 | 49 | 2.0 | 5.0 | 0.00 | 0.00 | 0.00 | 90 | 1012.2 |
| 20260905100042 | 62 | 50 | 2.0 | 5.0 | 0.00 | 0.00 | 0.00 | 90 | 1012.1 |
| 20260905095547 | 62 | 40 | 2.0 | 5.0 | 0.00 | 0.00 | 0.00 | 90 | 1012.2 |
| 20260905095053 | 62 | 38 | 1.0 | 4.0 | 0.00 | 0.00 | 0.00 | 90 | 1012.3 |
| 20260905094520 | 62 | 38 | 0.0 | 0.0 | 0.00 | 0.00 | 0.00 | 90 | 1012.2 |
| 20260905094024 | 62 | 37 | 0.0 | 3.0 | 0.00 | 0.00 | 0.00 | 90 | 1012.4 |
| 20260905093529 | 62 | 38 | 0.0 | 4.0 | 0.00 | 0.00 | 0.00 | 89 | 1012.4 |
| 20260905093034 | 62 | 38 | 1.0 | 4.0 | 0.00 | 0.00 | 0.00 | 89 | 1012.3 |
| 20260905092517 | 63 | 38 | 0.0 | 0.0 | 0.00 | 0.00 | 0.00 | 89 | 1012.3 |
| 20260905092026 | 63 | 38 | 0.0 | 4.0 | 0.00 | 0.00 | 0.00 | 89 | 1012.3 |
| 20260905091528 | 63 | 33 | 1.0 | 4.0 | 0.00 | 0.00 | 0.00 | 89 | 1012.1 |
| 20260905091026 | 63 | 30 | 0.0 | 0.0 | 0.00 | 0.00 | 0.00 | 89 | 1012.2 |
| 20260905090534 | 63 | 30 | 0.0 | 3.0 | 0.00 | 0.00 | 0.00 | 89 | 1012.3 |
| 20260905090017 | 63 | 30 | 0.0 | 3.0 | 0.00 | 0.00 | 0.00 | 89 | 1012.3 |
| 20260905085523 | 63 | 30 | 1.0 | 4.0 | 0.00 | 0.00 | 0.00 | 89 | 1012.4 |
| 20260905085030 | 64 | 28 | 0.0 | 4.0 | 0.00 | 0.00 | 0.00 | 89 | 1012.5 |
| 20260905084536 | 64 | 44 | 2.0 | 4.0 | 0.00 | 0.00 | 0.00 | 89 | 1012.5 |
| 20260905084020 | 64 | 44 | 0.0 | 1.0 | 0.00 | 0.00 | 0.00 | 89 | 1012.6 |
| 20260905083523 | 63 | 44 | 0.0 | 0.0 | 0.00 | 0.00 | 0.00 | 89 | 1012.6 |
| 20260905083031 | 63 | 44 | 0.0 | 0.0 | 0.00 | 0.00 | 0.00 | 89 | 1012.6 |
| 20260905082537 | 63 | 44 | 0.0 | 0.0 | 0.00 | 0.00 | 0.00 | 89 | 1012.6 |
| 20260905082045 | 63 | 44 | 0.0 | 0.0 | 0.00 | 0.00 | 0.00 | 89 | 1012.7 |
| 20260905081550 | 64 | 44 | 0.0 | 0.0 | 0.00 | 0.00 | 0.00 | 89 | 1012.9 |
| 20260905081038 | 64 | 44 | 0.0 | 0.0 | 0.00 | 0.00 | 0.00 | 89 | 1012.9 |
| 20260905080521 | 64 | 44 | 0.0 | 0.0 | 0.00 | 0.00 | 0.00 | 88 | 1012.9 |
| 20260905080023 | 64 | 19 | 0.0 | 0.0 | 0.00 | 0.00 | 0.00 | 88 | 1012.9 |
| 20260905075533 | 64 | 19 | 0.0 | 0.0 | 0.00 | 0.00 | 0.00 | 88 | 1012.9 |
| 20260905075019 | 64 | 19 | 0.0 | 2.0 | 0.00 | 0.00 | 0.00 | 88 | 1012.9 |
| 20260905074523 | 64 | 16 | 0.0 | 4.0 | 0.00 | 0.00 | 0.00 | 88 | 1012.9 |
| 20260905074037 | 64 | 16 | 0.0 | 4.0 | 0.00 | 0.00 | 0.00 | 88 | 1012.9 |
| 20260905073519 | 65 | 16 | 2.0 | 4.0 | 0.00 | 0.00 | 0.00 | 89 | 1012.9 |
| 20260905073020 | 65 | 232 | 0.0 | 0.0 | 0.00 | 0.00 | 0.00 | 89 | 1012.9 |
| 20260905072524 | 65 | 232 | 0.0 | 0.0 | 0.00 | 0.00 | 0.00 | 88 | 1012.9 |
| 20260905072029 | 65 | 232 | 0.0 | 0.0 | 0.00 | 0.00 | 0.00 | 88 | 1012.9 |
| 20260905071538 | 65 | 232 | 0.0 | 0.0 | 0.00 | 0.00 | 0.00 | 88 | 1012.9 |
| 20260905071022 | 65 | 232 | 0.0 | 0.0 | 0.00 | 0.00 | 0.00 | 88 | 1013.0 |
| 20260905070523 | 65 | 232 | 0.0 | 0.0 | 0.00 | 0.00 | 0.00 | 88 | 1012.9 |
| 20260905070031 | 65 | 231 | 0.0 | 0.0 | 0.00 | 0.00 | 0.00 | 88 | 1013.0 |
| 20260905065538 | 65 | 232 | 0.0 | 0.0 | 0.00 | 0.00 | 0.00 | 88 | 1013.0 |
| 20260905065049 | 65 | 232 | 0.0 | 0.0 | 0.00 | 0.00 | 0.00 | 87 | 1013.0 |
| 20260905064533 | 65 | 232 | 0.0 | 0.0 | 0.00 | 0.00 | 0.00 | 87 | 1013.0 |
| 20260905064043 | 66 | 231 | 0.0 | 0.0 | 0.00 | 0.00 | 0.00 | 87 | 1013.0 |
| 20260905063524 | 66 | 231 | 0.0 | 0.0 | 0.00 | 0.00 | 0.00 | 88 | 1013.0 |
| 20260905063025 | 66 | 231 | 0.0 | 0.0 | 0.00 | 0.00 | 0.00 | 88 | 1012.9 |
| 20260905062527 | 66 | 231 | 0.0 | 0.0 | 0.00 | 0.00 | 0.00 | 88 | 1012.9 |
| 20260905062030 | 66 | 231 | 0.0 | 0.0 | 0.00 | 0.00 | 0.00 | 88 | 1012.9 |
| 20260905061535 | 66 | 231 | 0.0 | 0.0 | 0.00 | 0.00 | 0.00 | 88 | 1012.8 |
| 20260905061020 | 66 | 231 | 0.0 | 0.0 | 0.00 | 0.00 | 0.00 | 88 | 1012.8 |
| 20260905060528 | 66 | 231 | 0.0 | 0.0 | 0.00 | 0.00 | 0.00 | 88 | 1012.8 |
| 20260905060036 | 66 | 230 | 0.0 | 0.0 | 0.00 | 0.00 | 0.00 | 88 | 1012.7 |
| 20260905055519 | 66 | 230 | 0.0 | 0.0 | 0.00 | 0.00 | 0.00 | 88 | 1012.7 |
| 20260905055046 | 66 | 230 | 0.0 | 0.0 | 0.00 | 0.00 | 0.00 | 87 | 1012.7 |
| 20260905054526 | 66 | 230 | 0.0 | 0.0 | 0.00 | 0.00 | 0.00 | 87 | 1012.6 |
| 20260905054034 | 67 | 229 | 0.0 | 0.0 | 0.00 | 0.00 | 0.00 | 88 | 1012.7 |
| 20260905053523 | 67 | 229 | 0.0 | 0.0 | 0.00 | 0.00 | 0.00 | 88 | 1012.7 |
| 20260905053023 | 67 | 229 | 0.0 | 0.0 | 0.00 | 0.00 | 0.00 | 88 | 1012.7 |
| 20260905052528 | 67 | 229 | 0.0 | 0.0 | 0.00 | 0.00 | 0.00 | 88 | 1012.7 |
| 20260905052035 | 67 | 229 | 0.0 | 0.0 | 0.00 | 0.00 | 0.00 | 88 | 1012.7 |
| 20260905051521 | 67 | 229 | 0.0 | 0.0 | 0.00 | 0.00 | 0.00 | 87 | 1012.6 |
| 20260905051027 | 67 | 229 | 0.0 | 0.0 | 0.00 | 0.00 | 0.00 | 86 | 1012.7 |
| 20260905050529 | 67 | 229 | 0.0 | 0.0 | 0.00 | 0.00 | 0.00 | 87 | 1012.7 |
| 20260905050034 | 67 | 229 | 0.0 | 0.0 | 0.00 | 0.00 | 0.00 | 86 | 1012.7 |
| 20260905045519 | 67 | 229 | 0.0 | 0.0 | 0.00 | 0.00 | 0.00 | 85 | 1012.7 |
| 20260905045021 | 68 | 229 | 0.0 | 0.0 | 0.00 | 0.00 | 0.00 | 86 | 1012.6 |
| 20260905044526 | 68 | 229 | 0.0 | 0.0 | 0.00 | 0.00 | 0.00 | 86 | 1012.6 |
| 20260905044053 | 68 | 229 | 0.0 | 0.0 | 0.00 | 0.00 | 0.00 | 86 | 1012.5 |
| 20260905043522 | 68 | 229 | 0.0 | 0.0 | 0.00 | 0.00 | 0.00 | 86 | 1012.4 |
| 20260905043023 | 68 | 229 | 0.0 | 0.0 | 0.00 | 0.00 | 0.00 | 86 | 1012.4 |
| 20260905042538 | 68 | 229 | 0.0 | 0.0 | 0.00 | 0.00 | 0.00 | 85 | 1012.3 |
| 20260905042025 | 68 | 229 | 0.0 | 0.0 | 0.00 | 0.00 | 0.00 | 85 | 1012.2 |
| 20260905041527 | 68 | 229 | 0.0 | 0.0 | 0.00 | 0.00 | 0.00 | 85 | 1012.2 |
| 20260905041031 | 68 | 228 | 0.0 | 0.0 | 0.00 | 0.00 | 0.00 | 84 | 1012.1 |
| 20260905040540 | 68 | 228 | 0.0 | 0.0 | 0.00 | 0.00 | 0.00 | 84 | 1012.2 |
| 20260905040047 | 69 | 228 | 0.0 | 0.0 | 0.00 | 0.00 | 0.00 | 84 | 1012.1 |
| 20260905035528 | 69 | 228 | 0.0 | 2.0 | 0.00 | 0.00 | 0.00 | 84 | 1012.0 |
| 20260905035028 | 69 | 228 | 0.0 | 3.0 | 0.00 | 0.00 | 0.00 | 84 | 1012.1 |
| 20260905034530 | 69 | 228 | 0.0 | 3.0 | 0.00 | 0.00 | 0.00 | 84 | 1012.0 |
| 20260905034033 | 69 | 227 | 0.0 | 0.0 | 0.00 | 0.00 | 0.00 | 84 | 1011.9 |
| 20260905033532 | 69 | 228 | 0.0 | 1.0 | 0.00 | 0.00 | 0.00 | 83 | 1011.9 |
| 20260905033023 | 69 | 228 | 0.0 | 1.0 | 0.00 | 0.00 | 0.00 | 83 | 1012.0 |
| 20260905032527 | 69 | 215 | 0.0 | 3.0 | 0.00 | 0.00 | 0.00 | 83 | 1011.9 |
| 20260905032056 | 69 | 215 | 0.0 | 3.0 | 0.00 | 0.00 | 0.00 | 83 | 1011.8 |
| 20260905031539 | 69 | 216 | 0.0 | 3.0 | 0.00 | 0.00 | 0.00 | 83 | 1011.8 |
| 20260905031021 | 69 | 238 | 0.0 | 3.0 | 0.00 | 0.00 | 0.00 | 82 | 1011.6 |
| 20260905030524 | 69 | 238 | 1.0 | 3.0 | 0.00 | 0.00 | 0.00 | 82 | 1011.5 |
| 20260905030029 | 69 | 229 | 0.0 | 2.0 | 0.00 | 0.00 | 0.00 | 82 | 1011.6 |
| 20260905025539 | 70 | 229 | 0.0 | 4.0 | 0.00 | 0.00 | 0.00 | 82 | 1011.5 |
| 20260905025026 | 70 | 229 | 0.0 | 4.0 | 0.00 | 0.00 | 0.00 | 82 | 1011.5 |
| 20260905024552 | 70 | 235 | 0.0 | 4.0 | 0.00 | 0.00 | 0.00 | 81 | 1011.5 |
| 20260905024034 | 70 | 254 | 0.0 | 3.0 | 0.00 | 0.00 | 0.00 | 81 | 1011.5 |
| 20260905023538 | 70 | 254 | 0.0 | 3.0 | 0.00 | 0.00 | 0.00 | 80 | 1011.5 |
| 20260905023025 | 70 | 242 | 1.0 | 4.0 | 0.00 | 0.00 | 0.00 | 80 | 1011.4 |
| 20260905022528 | 70 | 225 | 0.0 | 4.0 | 0.00 | 0.00 | 0.00 | 80 | 1011.5 |
| 20260905022033 | 71 | 223 | 0.0 | 3.0 | 0.00 | 0.00 | 0.00 | 80 | 1011.6 |
| 20260905021543 | 71 | 223 | 1.0 | 3.0 | 0.00 | 0.00 | 0.00 | 79 | 1011.6 |
| 20260905021027 | 71 | 229 | 0.0 | 3.0 | 0.00 | 0.00 | 0.00 | 78 | 1011.6 |
| 20260905020534 | 71 | 260 | 1.0 | 3.0 | 0.00 | 0.00 | 0.00 | 78 | 1011.5 |
| 20260905020039 | 71 | 250 | 0.0 | 5.0 | 0.00 | 0.00 | 0.00 | 77 | 1011.4 |
| 20260905015522 | 72 | 272 | 2.0 | 5.0 | 0.00 | 0.00 | 0.00 | 77 | 1011.4 |
| 20260905015025 | 72 | 245 | 1.0 | 5.0 | 0.00 | 0.00 | 0.00 | 77 | 1011.4 |
| 20260905014531 | 72 | 209 | 1.0 | 5.0 | 0.00 | 0.00 | 0.00 | 76 | 1011.3 |
| 20260905014059 | 72 | 219 | 1.0 | 4.0 | 0.00 | 0.00 | 0.00 | 76 | 1011.4 |
| 20260905013522 | 73 | 217 | 1.0 | 5.0 | 0.00 | 0.00 | 0.00 | 75 | 1011.3 |
| 20260905013027 | 73 | 229 | 1.0 | 5.0 | 0.00 | 0.00 | 0.00 | 74 | 1011.3 |
| 20260905012530 | 73 | 263 | 1.0 | 5.0 | 0.00 | 0.00 | 0.00 | 74 | 1011.3 |
| 20260905012032 | 74 | 207 | 2.0 | 5.0 | 0.00 | 0.00 | 0.00 | 74 | 1011.4 |
| 20260905011518 | 74 | 210 | 0.0 | 5.0 | 0.00 | 0.00 | 0.00 | 74 | 1011.4 |
| 20260905011024 | 74 | 228 | 3.0 | 5.0 | 0.00 | 0.00 | 0.00 | 72 | 1011.4 |
| 20260905010522 | 75 | 227 | 3.0 | 5.0 | 0.00 | 0.00 | 0.00 | 71 | 1011.4 |
| 20260905010021 | 76 | 221 | 2.0 | 5.0 | 0.00 | 0.00 | 0.00 | 70 | 1011.4 |
| 20260905005548 | 76 | 223 | 3.0 | 6.0 | 0.00 | 0.00 | 0.00 | 69 | 1011.4 |
| 20260905005027 | 76 | 214 | 2.0 | 6.0 | 0.00 | 0.00 | 0.00 | 70 | 1011.5 |
| 20260905004531 | 76 | 217 | 2.0 | 5.0 | 0.00 | 0.00 | 0.00 | 69 | 1011.4 |
| 20260905004054 | 77 | 205 | 3.0 | 6.0 | 0.00 | 0.00 | 0.00 | 69 | 1011.4 |
| 20260905003539 | 77 | 250 | 4.0 | 6.0 | 0.00 | 0.00 | 0.00 | 68 | 1011.5 |
| 20260905003027 | 77 | 212 | 2.0 | 7.0 | 0.00 | 0.00 | 0.00 | 69 | 1011.6 |
| 20260905002533 | 76 | 215 | 2.0 | 7.0 | 0.00 | 0.00 | 0.00 | 69 | 1011.6 |
| 20260905002042 | 76 | 196 | 4.0 | 7.0 | 0.00 | 0.00 | 0.00 | 69 | 1011.6 |
| 20260905001525 | 77 | 302 | 3.0 | 7.0 | 0.00 | 0.00 | 0.00 | 69 | 1011.5 |
| 20260905001029 | 77 | 267 | 3.0 | 7.0 | 0.00 | 0.00 | 0.00 | 68 | 1011.6 |
| 20260905000532 | 77 | 210 | 4.0 | 7.0 | 0.00 | 0.00 | 0.00 | 67 | 1011.5 |
| 20260905000035 | 77 | 219 | 3.0 | 7.0 | 0.00 | 0.00 | 0.00 | 67 | 1011.6 |
| 20260904235520 | 78 | 286 | 4.0 | 7.0 | 0.00 | 0.00 | 0.00 | 67 | 1011.7 |
| 20260904235023 | 78 | 216 | 3.0 | 8.0 | 0.00 | 0.00 | 0.00 | 67 | 1011.6 |
| 20260904234526 | 78 | 188 | 4.0 | 9.0 | 0.00 | 0.00 | 0.00 | 67 | 1011.6 |
| 20260904234029 | 78 | 244 | 3.0 | 9.0 | 0.00 | 0.00 | 0.00 | 66 | 1011.7 |
| 20260904233532 | 78 | 205 | 4.0 | 9.0 | 0.00 | 0.00 | 0.00 | 66 | 1011.8 |
| 20260904233033 | 78 | 207 | 3.0 | 8.0 | 0.00 | 0.00 | 0.00 | 65 | 1011.7 |
| 20260904232555 | 78 | 202 | 3.0 | 7.0 | 0.00 | 0.00 | 0.00 | 66 | 1011.7 |
| 20260904232055 | 78 | 206 | 4.0 | 7.0 | 0.00 | 0.00 | 0.00 | 66 | 1011.7 |
| 20260904231537 | 79 | 219 | 4.0 | 10.0 | 0.00 | 0.00 | 0.00 | 65 | 1011.7 |
| 20260904231020 | 79 | 253 | 4.0 | 10.0 | 0.00 | 0.00 | 0.00 | 63 | 1011.7 |
| 20260904230525 | 79 | 225 | 3.0 | 7.0 | 0.00 | 0.00 | 0.00 | 65 | 1011.8 |
| 20260904230031 | 79 | 258 | 2.0 | 7.0 | 0.00 | 0.00 | 0.00 | 65 | 1011.9 |
| 20260904225525 | 80 | 257 | 4.0 | 8.0 | 0.00 | 0.00 | 0.00 | 63 | 1011.8 |
| 20260904225046 | 80 | 236 | 3.0 | 8.0 | 0.00 | 0.00 | 0.00 | 62 | 1011.8 |
| 20260904224524 | 80 | 244 | 4.0 | 7.0 | 0.00 | 0.00 | 0.00 | 62 | 1011.9 |
| 20260904224021 | 80 | 236 | 3.0 | 7.0 | 0.00 | 0.00 | 0.00 | 62 | 1012.0 |
| 20260904223520 | 80 | 238 | 3.0 | 8.0 | 0.00 | 0.00 | 0.00 | 62 | 1011.9 |
| 20260904223038 | 80 | 213 | 4.0 | 8.0 | 0.00 | 0.00 | 0.00 | 62 | 1012.0 |